Penn Yan, NY
on Saturday, December 9, 2017

Saturday
       
Previous Day Next Day
Daily Summary
 ActualAverage (KITH)Record (KITH)
Temperature
Mean Temperature °F °C °F °C  
Max Temperature 34°F 1°C 38°F 3°C 64°F 17°C (1966)
Min Temperature 23°F -5°C 23°F -5°C -1°F -18°C (1989)
Degree Days
Heating Degree Days 36    
Moisture
Dew Point 14°F -10°C   
Average Humidity 56    
Maximum Humidity 68    
Minimum Humidity 44    
Precipitation
Precipitation 0.00 in / 0.00 cm in / cm in / cm ()
Wind
Wind Speed 8 mph / 13 km/h   
Max Wind Speed 12 mph / 19 km/h   
Max Gust Speed mph / km/h   
Visibility 10 miles / 16 kilometers   
Events     
Averages and records for this station are not official NWS values.
Key: T is trace of precipitation, MM is missing value
Source: NWS Daily Summary
Seasonal Weather Averages
Time(EST)TemperatureDew PointHumidity Pressure Visibility Wind DirectionWind SpeedGust SpeedPrecipitationEvents Conditions
12:53 AM 27.0°F -2.8°C 10.9°F -11.7°C 51% 29.94 in / 1013.8 hPa 10.0 miles / 16.1 kilometers SSW 9.2 mph / 14.8 km/h - N/A   Overcast
1:53 AM 26.1°F -3.3°C 12.0°F -11.1°C 55% 29.94 in / 1013.7 hPa 10.0 miles / 16.1 kilometers SSW 9.2 mph / 14.8 km/h - N/A   Partly Cloudy
2:53 AM 26.1°F -3.3°C 12.9°F -10.6°C 58% 29.94 in / 1013.7 hPa 10.0 miles / 16.1 kilometers SW 11.5 mph / 18.5 km/h - N/A   Clear
3:53 AM 26.1°F -3.3°C 12.0°F -11.1°C 55% 29.92 in / 1013.0 hPa 10.0 miles / 16.1 kilometers SSW 10.4 mph / 16.7 km/h - N/A   Clear
4:53 AM 25.0°F -3.9°C 12.9°F -10.6°C 60% 29.94 in / 1013.8 hPa 10.0 miles / 16.1 kilometers SSW 9.2 mph / 14.8 km/h - N/A   Clear
5:53 AM 25.0°F -3.9°C 12.9°F -10.6°C 60% 29.92 in / 1013.2 hPa 10.0 miles / 16.1 kilometers SSW 6.9 mph / 11.1 km/h - N/A   Clear
6:53 AM 25.0°F -3.9°C 12.9°F -10.6°C 60% 29.94 in / 1013.6 hPa 10.0 miles / 16.1 kilometers SSW 8.1 mph / 13.0 km/h - N/A   Clear
7:53 AM 24.1°F -4.4°C 12.9°F -10.6°C 62% 29.93 in / 1013.4 hPa 10.0 miles / 16.1 kilometers SSW 6.9 mph / 11.1 km/h - N/A   Clear
8:53 AM 25.0°F -3.9°C 12.0°F -11.1°C 58% 29.92 in / 1013.0 hPa 10.0 miles / 16.1 kilometers SSW 10.4 mph / 16.7 km/h - N/A   Clear
9:53 AM 27.0°F -2.8°C 14.0°F -10.0°C 58% 29.89 in / 1012.0 hPa 10.0 miles / 16.1 kilometers SSW 5.8 mph / 9.3 km/h - N/A   Clear
10:53 AM 28.9°F -1.7°C 16.0°F -8.9°C 58% 29.88 in / 1011.7 hPa 10.0 miles / 16.1 kilometers SW 8.1 mph / 13.0 km/h - N/A   Clear
11:53 AM 30.9°F -0.6°C 16.0°F -8.9°C 54% 29.84 in / 1010.5 hPa 10.0 miles / 16.1 kilometers SSW 5.8 mph / 9.3 km/h - N/A   Clear
12:53 PM 32.0°F 0.0°C 15.1°F -9.4°C 50% 29.81 in / 1009.3 hPa 10.0 miles / 16.1 kilometers SSW 5.8 mph / 9.3 km/h - N/A   Clear
1:53 PM 33.1°F 0.6°C 14.0°F -10.0°C 46% 29.78 in / 1008.4 hPa 10.0 miles / 16.1 kilometers South 6.9 mph / 11.1 km/h - N/A   Clear
2:53 PM 34.0°F 1.1°C 14.0°F -10.0°C 44% 29.77 in / 1008.1 hPa 10.0 miles / 16.1 kilometers Variable 4.6 mph / 7.4 km/h - N/A   Clear
3:53 PM 32.0°F 0.0°C 15.1°F -9.4°C 50% 29.77 in / 1008.0 hPa 10.0 miles / 16.1 kilometers ESE 5.8 mph / 9.3 km/h - N/A   Clear
4:53 PM 30.0°F -1.1°C 15.1°F -9.4°C 54% 29.76 in / 1007.6 hPa 4.0 miles / 6.4 kilometers ESE 6.9 mph / 11.1 km/h - N/A   Haze
5:53 PM 23.0°F -5.0°C 14.0°F -10.0°C 68% 29.78 in / 1008.2 hPa 10.0 miles / 16.1 kilometers South 4.6 mph / 7.4 km/h - N/A   Clear
6:53 PM 24.1°F -4.4°C 14.0°F -10.0°C 65% 29.78 in / 1008.3 hPa 10.0 miles / 16.1 kilometers South 5.8 mph / 9.3 km/h - N/A   Clear
7:53 PM 28.0°F -2.2°C 17.1°F -8.3°C 63% 29.76 in / 1007.7 hPa 10.0 miles / 16.1 kilometers West 4.6 mph / 7.4 km/h - N/A   Clear
8:53 PM 30.0°F -1.1°C 15.1°F -9.4°C 54% 29.76 in / 1007.6 hPa 10.0 miles / 16.1 kilometers West 4.6 mph / 7.4 km/h - N/A   Clear
9:53 PM 28.9°F -1.7°C 12.0°F -11.1°C 49% 29.77 in / 1008.1 hPa 10.0 miles / 16.1 kilometers Calm Calm - N/A   Partly Cloudy
10:53 PM 28.9°F -1.7°C 12.9°F -10.6°C 51% 29.77 in / 1008.0 hPa 10.0 miles / 16.1 kilometers SSW 4.6 mph / 7.4 km/h - N/A   Overcast
11:53 PM 28.9°F -1.7°C 14.0°F -10.0°C 54% 29.77 in / 1008.0 hPa 10.0 miles / 16.1 kilometers WSW 4.6 mph / 7.4 km/h - N/A   Overcast